owner,sensor,date,latitude,longitude,vertical_datum,wind_speed,wind_to_direction,wind_speed_of_gust,qcFlag 
TABS,ioos:station:wmo:42044:1,2003-09-01T00:09:00Z,26.1914,-97.0507,0.0,3.931030399,116.7609575,8.4,'11111222,11111222,11111222' 
TABS,ioos:station:wmo:42044:1,2003-09-01T00:39:00Z,26.1914,-97.0507,0.0,3.518991333,150.7400877,6.32,'11111222,11111222,11111222' 
TABS,ioos:station:wmo:42044:1,2003-09-01T01:09:00Z,26.1914,-97.0507,0.0,1.411736519,182.8423417,3.89,'11111222,11111222,11111222' 
TABS,ioos:station:wmo:42044:1,2003-09-01T01:39:00Z,26.1914,-97.0507,0.0,1.847917747,189.9722448,4.6,'11111222,11111222,11111222' 
TABS,ioos:station:wmo:42044:1,2003-09-01T02:09:00Z,26.1914,-97.0507,0.0,2.728369476,154.3744102,5.21,'11111222,11111222,11111222' 
TABS,ioos:station:wmo:42044:1,2003-09-01T02:39:00Z,26.1914,-97.0507,0.0,3.200390601,208.9678034,6.76,'11111222,11111222,11111222' 
TABS,ioos:station:wmo:42044:1,2003-09-01T03:09:00Z,26.1914,-97.0507,0.0,2.946082144,216.4421601,7.28,'11111222,11111222,11111222' 
TABS,ioos:station:wmo:42044:1,2003-09-01T03:39:00Z,26.1914,-97.0507,0.0,3.006958596,202.8985103,6.59,'11111222,11111222,11111222' 
TABS,ioos:station:wmo:42044:1,2003-09-01T04:09:00Z,26.1914,-97.0507,0.0,2.875865087,221.6171073,6.46,'11111222,11111222,11111222' 
TABS,ioos:station:wmo:42044:1,2003-09-01T04:39:00Z,26.1914,-97.0507,0.0,2.761539426,202.5721432,7.48,'11111222,11111222,11111222' 
TABS,ioos:station:wmo:42044:1,2003-09-01T05:09:00Z,26.1914,-97.0507,0.0,1.84439692,187.1637412,8.41,'11111222,11111222,11111222' 
TABS,ioos:station:wmo:42044:1,2003-09-01T05:39:00Z,26.1914,-97.0507,0.0,2.021212507,181.9849089,5.32,'11111222,11111222,11111222' 
TABS,ioos:station:wmo:42044:1,2003-09-01T06:09:00Z,26.1914,-97.0507,0.0,2.300086955,179.502,6.56,'11111222,11111222,11111222' 
TABS,ioos:station:wmo:42044:1,2003-09-01T06:39:00Z,26.1914,-97.0507,0.0,3.031996042,124.7911055,7.79,'11111222,11111222,11111222' 
TABS,ioos:station:wmo:42044:1,2003-09-01T07:09:00Z,26.1914,-97.0507,0.0,3.538036178,120.769695,10.75,'11111222,11111222,11111222' 
TABS,ioos:station:wmo:42044:1,2003-09-01T07:39:00Z,26.1914,-97.0507,0.0,4.263390669,124.584999,10.35,'11111222,11111222,11111222' 
TABS,ioos:station:wmo:42044:1,2003-09-01T08:09:00Z,26.1914,-97.0507,0.0,4.03059549,117.9641378,9.47,'11111222,11111222,11111222' 
TABS,ioos:station:wmo:42044:1,2003-09-01T08:39:00Z,26.1914,-97.0507,0.0,4.146733654,154.732959,11.36,'11111222,11111222,11111222' 
TABS,ioos:station:wmo:42044:1,2003-09-01T09:09:00Z,26.1914,-97.0507,0.0,3.515124464,153.653906,9.99,'11111222,11111222,11111222' 
TABS,ioos:station:wmo:42044:1,2003-09-01T09:39:00Z,26.1914,-97.0507,0.0,6.422810911,125.1750616,11.51,'11111222,11111222,11111222' 
TABS,ioos:station:wmo:42044:1,2003-09-01T10:09:00Z,26.1914,-97.0507,0.0,6.573834497,122.8926737,11.7,'11111222,11111222,11111222' 
TABS,ioos:station:wmo:42044:1,2003-09-01T10:39:00Z,26.1914,-97.0507,0.0,6.131663722,130.9664915,12.44,'11111222,11111222,11111222' 
TABS,ioos:station:wmo:42044:1,2003-09-01T11:09:00Z,26.1914,-97.0507,0.0,4.538557039,137.9474117,10.24,'11111222,11111222,11111222' 
TABS,ioos:station:wmo:42044:1,2003-09-01T11:39:00Z,26.1914,-97.0507,0.0,5.085705457,131.6525747,10.05,'11111222,11111222,11111222' 
TABS,ioos:station:wmo:42044:1,2003-09-01T12:09:00Z,26.1914,-97.0507,0.0,6.776208379,145.5832182,12.56,'11111222,11111222,11111222' 
TABS,ioos:station:wmo:42044:1,2003-09-01T12:39:00Z,26.1914,-97.0507,0.0,4.59309264,174.2523935,10.52,'11111222,11111222,11111222' 
TABS,ioos:station:wmo:42044:1,2003-09-01T13:09:00Z,26.1914,-97.0507,0.0,5.09082508,247.111806,13.69,'11111222,11111222,11111222' 
TABS,ioos:station:wmo:42044:1,2003-09-01T13:39:00Z,26.1914,-97.0507,0.0,4.014299441,220.5549668,10.32,'11111222,11111222,11111222' 
TABS,ioos:station:wmo:42044:1,2003-09-01T14:09:00Z,26.1914,-97.0507,0.0,4.126257384,247.7860787,10.2,'11111222,11111222,11111222' 
TABS,ioos:station:wmo:42044:1,2003-09-01T14:39:00Z,26.1914,-97.0507,0.0,4.695881174,256.7036197,12.51,'11111222,11111222,11111222' 
TABS,ioos:station:wmo:42044:1,2003-09-01T15:09:00Z,26.1914,-97.0507,0.0,7.052517281,250.7943473,11.88,'11111222,11111222,11111222' 
TABS,ioos:station:wmo:42044:1,2003-09-01T15:39:00Z,26.1914,-97.0507,0.0,3.763110416,288.4349057,11.49,'11111222,11111222,11111222' 
TABS,ioos:station:wmo:42044:1,2003-09-01T16:09:00Z,26.1914,-97.0507,0.0,4.951646191,240.7431654,9.01,'11111222,11111222,11111222' 
TABS,ioos:station:wmo:42044:1,2003-09-01T16:39:00Z,26.1914,-97.0507,0.0,4.721493408,245.6063177,8.47,'11111222,11111222,11111222' 
TABS,ioos:station:wmo:42044:1,2003-09-01T17:09:00Z,26.1914,-97.0507,0.0,4.085400837,267.0535595,7.47,'11111222,11111222,11111222' 
TABS,ioos:station:wmo:42044:1,2003-09-01T17:39:00Z,26.1914,-97.0507,0.0,3.464678917,267.0219863,6.95,'11111222,11111222,11111222' 
TABS,ioos:station:wmo:42044:1,2003-09-01T18:09:00Z,26.1914,-97.0507,0.0,1.940927613,1.771255139,7.4,'11111222,11111222,11111222' 
TABS,ioos:station:wmo:42044:1,2003-09-01T18:39:00Z,26.1914,-97.0507,0.0,3.11372767,279.6135554,7.09,'11111222,11111222,11111222' 
TABS,ioos:station:wmo:42044:1,2003-09-01T19:09:00Z,26.1914,-97.0507,0.0,2.076246613,305.9867115,7.06,'11111222,11111222,11111222' 
TABS,ioos:station:wmo:42044:1,2003-09-01T19:39:00Z,26.1914,-97.0507,0.0,1.228739191,326.9564511,6.35,'11111222,11111222,11111222' 
TABS,ioos:station:wmo:42044:1,2003-09-01T20:09:00Z,26.1914,-97.0507,0.0,2.49729854,9.914712034,9.57,'11111222,11111222,11111222' 
TABS,ioos:station:wmo:42044:1,2003-09-01T20:39:00Z,26.1914,-97.0507,0.0,3.398823326,26.5647786,9.77,'11111222,11111222,11111222' 
TABS,ioos:station:wmo:42044:1,2003-09-01T21:09:00Z,26.1914,-97.0507,0.0,6.971613873,39.87892582,11.39,'11111222,11111222,11111222' 
TABS,ioos:station:wmo:42044:1,2003-09-01T21:39:00Z,26.1914,-97.0507,0.0,6.842229169,37.33854053,10.31,'11111222,11111222,11111222' 
TABS,ioos:station:wmo:42044:1,2003-09-01T22:09:00Z,26.1914,-97.0507,0.0,7.416009709,36.77688965,10.0,'11111222,11111222,11111222' 
TABS,ioos:station:wmo:42044:1,2003-09-01T22:39:00Z,26.1914,-97.0507,0.0,6.736980036,33.31237315,10.03,'11111222,11111222,11111222' 
TABS,ioos:station:wmo:42044:1,2003-09-01T23:09:00Z,26.1914,-97.0507,0.0,7.694621498,43.94657414,11.29,'11111222,11111222,11111222' 
TABS,ioos:station:wmo:42044:1,2003-09-01T23:39:00Z,26.1914,-97.0507,0.0,6.986272253,45.23164922,10.52,'11111222,11111222,11111222' 
TABS,ioos:station:wmo:42044:1,2003-09-02T00:09:00Z,26.1914,-97.0507,0.0,6.786486573,41.53507461,9.73,'11111222,11111222,11111222' 
TABS,ioos:station:wmo:42044:1,2003-09-02T00:39:00Z,26.1914,-97.0507,0.0,5.602017494,53.27295533,9.66,'11111222,11111222,11111222' 
TABS,ioos:station:wmo:42044:1,2003-09-02T01:09:00Z,26.1914,-97.0507,0.0,4.894701217,48.39530014,8.57,'11111222,11111222,11111222' 
TABS,ioos:station:wmo:42044:1,2003-09-02T01:39:00Z,26.1914,-97.0507,0.0,2.752308122,67.3477404,9.63,'11111222,11111222,11111222' 
TABS,ioos:station:wmo:42044:1,2003-09-02T02:09:00Z,26.1914,-97.0507,0.0,4.301743832,70.30100377,10.19,'11111222,11111222,11111222' 
TABS,ioos:station:wmo:42044:1,2003-09-02T02:39:00Z,26.1914,-97.0507,0.0,5.893089173,61.52109643,9.42,'11111222,11111222,11111222' 
TABS,ioos:station:wmo:42044:1,2003-09-02T03:09:00Z,26.1914,-97.0507,0.0,5.453888521,60.56749917,9.25,'11111222,11111222,11111222' 
TABS,ioos:station:wmo:42044:1,2003-09-02T03:39:00Z,26.1914,-97.0507,0.0,4.575784086,64.49860969,9.79,'11111222,11111222,11111222' 
TABS,ioos:station:wmo:42044:1,2003-09-02T04:09:00Z,26.1914,-97.0507,0.0,6.420358245,75.29238853,9.82,'11111222,11111222,11111222' 
TABS,ioos:station:wmo:42044:1,2003-09-02T04:39:00Z,26.1914,-97.0507,0.0,5.193110821,70.65750997,9.76,'11111222,11111222,11111222' 
TABS,ioos:station:wmo:42044:1,2003-09-02T05:09:00Z,26.1914,-97.0507,0.0,5.348167911,68.61599392,9.85,'11111222,11111222,11111222' 
TABS,ioos:station:wmo:42044:1,2003-09-02T05:39:00Z,26.1914,-97.0507,0.0,5.417600945,73.70556973,9.58,'11111222,11111222,11111222' 
TABS,ioos:station:wmo:42044:1,2003-09-02T06:09:00Z,26.1914,-97.0507,0.0,5.175915378,75.45325199,8.97,'11111222,11111222,11111222' 
TABS,ioos:station:wmo:42044:1,2003-09-02T06:39:00Z,26.1914,-97.0507,0.0,5.42609436,69.72783323,9.73,'11111222,11111222,11111222' 
TABS,ioos:station:wmo:42044:1,2003-09-02T07:09:00Z,26.1914,-97.0507,0.0,5.539187666,79.70400839,9.49,'11111222,11111222,11111222' 
TABS,ioos:station:wmo:42044:1,2003-09-02T07:39:00Z,26.1914,-97.0507,0.0,5.516321238,72.81289015,10.23,'11111222,11111222,11111222' 
TABS,ioos:station:wmo:42044:1,2003-09-02T08:09:00Z,26.1914,-97.0507,0.0,4.03491016,77.5478109,8.95,'11111222,11111222,11111222' 
TABS,ioos:station:wmo:42044:1,2003-09-02T08:39:00Z,26.1914,-97.0507,0.0,5.642384248,79.06805381,10.2,'11111222,11111222,11111222' 
TABS,ioos:station:wmo:42044:1,2003-09-02T09:09:00Z,26.1914,-97.0507,0.0,4.003523448,108.7973796,8.94,'11111222,11111222,11111222' 
TABS,ioos:station:wmo:42044:1,2003-09-02T09:39:00Z,26.1914,-97.0507,0.0,1.736692258,166.6841585,7.31,'11111222,11111222,11111222' 
TABS,ioos:station:wmo:42044:1,2003-09-02T10:09:00Z,26.1914,-97.0507,0.0,5.020926209,73.33316423,8.14,'11111222,11111222,11111222' 
TABS,ioos:station:wmo:42044:1,2003-09-02T10:39:00Z,26.1914,-97.0507,0.0,1.261269202,117.3780597,7.45,'11111222,11111222,11111222' 
TABS,ioos:station:wmo:42044:1,2003-09-02T11:09:00Z,26.1914,-97.0507,0.0,0.917060521,154.8323992,6.49,'11111222,11111222,11111222' 
TABS,ioos:station:wmo:42044:1,2003-09-02T11:39:00Z,26.1914,-97.0507,0.0,0.538237866,215.1665643,6.65,'11111222,11111222,11111222' 
TABS,ioos:station:wmo:42044:1,2003-09-02T12:09:00Z,26.1914,-97.0507,0.0,0.738782783,219.5077935,6.37,'11111222,11111222,11111222' 
TABS,ioos:station:wmo:42044:1,2003-09-02T12:39:00Z,26.1914,-97.0507,0.0,3.894123778,227.9144584,5.97,'11111222,11111222,11111222' 
TABS,ioos:station:wmo:42044:1,2003-09-02T13:09:00Z,26.1914,-97.0507,0.0,4.445312138,234.522338,6.03,'11111222,11111222,11111222' 
TABS,ioos:station:wmo:42044:1,2003-09-02T13:39:00Z,26.1914,-97.0507,0.0,3.703970842,260.2071029,5.45,'11111222,11111222,11111222' 
TABS,ioos:station:wmo:42044:1,2003-09-02T14:09:00Z,26.1914,-97.0507,0.0,3.536000566,306.8374044,6.33,'11111222,11111222,11111222' 
TABS,ioos:station:wmo:42044:1,2003-09-02T14:39:00Z,26.1914,-97.0507,0.0,5.545854307,244.1280696,9.46,'11111222,11111222,11111222' 
TABS,ioos:station:wmo:42044:1,2003-09-02T15:09:00Z,26.1914,-97.0507,0.0,6.095777227,275.2710038,9.9,'11111222,11111222,11111222' 
TABS,ioos:station:wmo:42044:1,2003-09-02T15:39:00Z,26.1914,-97.0507,0.0,5.901660783,271.3593026,8.44,'11111222,11111222,11111222' 
TABS,ioos:station:wmo:42044:1,2003-09-02T16:09:00Z,26.1914,-97.0507,0.0,5.009361237,290.569384,7.25,'11111222,11111222,11111222' 
TABS,ioos:station:wmo:42044:1,2003-09-02T16:39:00Z,26.1914,-97.0507,0.0,5.234739726,287.2233959,7.22,'11111222,11111222,11111222' 
TABS,ioos:station:wmo:42044:1,2003-09-02T17:09:00Z,26.1914,-97.0507,0.0,5.127884554,294.6658293,7.02,'11111222,11111222,11111222' 
TABS,ioos:station:wmo:42044:1,2003-09-02T17:39:00Z,26.1914,-97.0507,0.0,3.594356688,312.9705831,5.95,'11111222,11111222,11111222' 
TABS,ioos:station:wmo:42044:1,2003-09-02T18:09:00Z,26.1914,-97.0507,0.0,3.714310165,323.8704299,6.23,'11111222,11111222,11111222' 
TABS,ioos:station:wmo:42044:1,2003-09-02T18:39:00Z,26.1914,-97.0507,0.0,3.985285435,336.3293064,5.77,'11111222,11111222,11111222' 
TABS,ioos:station:wmo:42044:1,2003-09-02T19:09:00Z,26.1914,-97.0507,0.0,3.505709629,326.4004584,5.46,'11111222,11111222,11111222' 
TABS,ioos:station:wmo:42044:1,2003-09-02T19:39:00Z,26.1914,-97.0507,0.0,3.606618915,328.9543713,5.67,'11111222,11111222,11111222' 
TABS,ioos:station:wmo:42044:1,2003-09-02T20:09:00Z,26.1914,-97.0507,0.0,4.217416271,333.981614,6.23,'11111222,11111222,11111222' 
TABS,ioos:station:wmo:42044:1,2003-09-02T20:39:00Z,26.1914,-97.0507,0.0,4.548988899,327.1132846,6.32,'11111222,11111222,11111222' 
TABS,ioos:station:wmo:42044:1,2003-09-02T21:09:00Z,26.1914,-97.0507,0.0,5.063200569,336.9795587,7.09,'11111222,11111222,11111222' 
TABS,ioos:station:wmo:42044:1,2003-09-02T21:39:00Z,26.1914,-97.0507,0.0,4.97690667,338.7970205,6.64,'11111222,11111222,11111222' 
TABS,ioos:station:wmo:42044:1,2003-09-02T22:09:00Z,26.1914,-97.0507,0.0,4.375042857,357.2485684,5.91,'11111222,11111222,11111222' 
TABS,ioos:station:wmo:42044:1,2003-09-02T22:39:00Z,26.1914,-97.0507,0.0,4.831945778,354.5369859,6.96,'11111222,11111222,11111222' 
TABS,ioos:station:wmo:42044:1,2003-09-02T23:09:00Z,26.1914,-97.0507,0.0,3.230758425,1.241296497,4.94,'11111222,11111222,11111222' 
TABS,ioos:station:wmo:42044:1,2003-09-02T23:39:00Z,26.1914,-97.0507,0.0,4.09,342.9382982,5.49,'11111222,11111222,11111222' 
TABS,ioos:station:wmo:42044:1,2003-09-03T00:09:00Z,26.1914,-97.0507,0.0,4.710244155,346.4946253,6.54,'11111222,11111222,11111222' 
TABS,ioos:station:wmo:42044:1,2003-09-03T00:39:00Z,26.1914,-97.0507,0.0,3.96042927,352.892734,6.87,'11111222,11111222,11111222' 
TABS,ioos:station:wmo:42044:1,2003-09-03T01:09:00Z,26.1914,-97.0507,0.0,4.561797891,10.86631593,7.15,'11111222,11111222,11111222' 
TABS,ioos:station:wmo:42044:1,2003-09-03T01:39:00Z,26.1914,-97.0507,0.0,3.586028444,18.53574567,5.21,'11111222,11111222,11111222' 
TABS,ioos:station:wmo:42044:1,2003-09-03T02:09:00Z,26.1914,-97.0507,0.0,4.035145598,18.7939109,5.65,'11111222,11111222,11111222' 
TABS,ioos:station:wmo:42044:1,2003-09-03T02:39:00Z,26.1914,-97.0507,0.0,4.620443702,29.28316982,6.8,'11111222,11111222,11111222' 
TABS,ioos:station:wmo:42044:1,2003-09-03T03:09:00Z,26.1914,-97.0507,0.0,5.6188255,28.02422454,7.23,'11111222,11111222,11111222' 
TABS,ioos:station:wmo:42044:1,2003-09-03T03:39:00Z,26.1914,-97.0507,0.0,5.014718337,27.944514,6.76,'11111222,11111222,11111222' 
TABS,ioos:station:wmo:42044:1,2003-09-03T04:09:00Z,26.1914,-97.0507,0.0,5.283578333,33.41909221,6.81,'11111222,11111222,11111222' 
TABS,ioos:station:wmo:42044:1,2003-09-03T04:39:00Z,26.1914,-97.0507,0.0,5.002439405,28.40908163,7.04,'11111222,11111222,11111222' 
TABS,ioos:station:wmo:42044:1,2003-09-03T05:09:00Z,26.1914,-97.0507,0.0,4.866148374,29.14581567,6.59,'11111222,11111222,11111222' 
TABS,ioos:station:wmo:42044:1,2003-09-03T05:39:00Z,26.1914,-97.0507,0.0,4.75584903,30.44693839,7.4,'11111222,11111222,11111222' 
TABS,ioos:station:wmo:42044:1,2003-09-03T06:09:00Z,26.1914,-97.0507,0.0,4.443343336,33.15331788,6.44,'11111222,11111222,11111222' 
TABS,ioos:station:wmo:42044:1,2003-09-03T06:39:00Z,26.1914,-97.0507,0.0,4.168225042,27.11804553,6.48,'11111222,11111222,11111222' 
TABS,ioos:station:wmo:42044:1,2003-09-03T07:09:00Z,26.1914,-97.0507,0.0,3.960934233,24.30002935,6.64,'11111222,11111222,11111222' 
TABS,ioos:station:wmo:42044:1,2003-09-03T07:39:00Z,26.1914,-97.0507,0.0,3.325808172,21.70517553,5.32,'11111222,11111222,11111222' 
TABS,ioos:station:wmo:42044:1,2003-09-03T08:09:00Z,26.1914,-97.0507,0.0,3.027688888,26.90330137,4.91,'11111222,11111222,11111222' 
TABS,ioos:station:wmo:42044:1,2003-09-03T08:39:00Z,26.1914,-97.0507,0.0,2.260199106,0.76030654,5.07,'11111222,11111222,11111222' 
TABS,ioos:station:wmo:42044:1,2003-09-03T09:09:00Z,26.1914,-97.0507,0.0,1.839918476,351.5614313,4.58,'11111222,11111222,11111222' 
TABS,ioos:station:wmo:42044:1,2003-09-03T09:39:00Z,26.1914,-97.0507,0.0,2.442048321,25.72534203,5.01,'11111222,11111222,11111222' 
TABS,ioos:station:wmo:42044:1,2003-09-03T10:09:00Z,26.1914,-97.0507,0.0,1.754821928,4.248234136,5.0,'11111222,11111222,11111222' 
TABS,ioos:station:wmo:42044:1,2003-09-03T10:39:00Z,26.1914,-97.0507,0.0,0.563205114,343.4954668,5.29,'11111222,11111222,11111222' 
TABS,ioos:station:wmo:42044:1,2003-09-03T11:09:00Z,26.1914,-97.0507,0.0,1.659216683,26.10148159,5.51,'11111222,11111222,11111222' 
TABS,ioos:station:wmo:42044:1,2003-09-03T11:39:00Z,26.1914,-97.0507,0.0,3.085741402,23.49089677,5.84,'11111222,11111222,11111222' 
TABS,ioos:station:wmo:42044:1,2003-09-03T12:09:00Z,26.1914,-97.0507,0.0,2.481692971,40.75123972,5.56,'11111222,11111222,11111222' 
TABS,ioos:station:wmo:42044:1,2003-09-03T12:39:00Z,26.1914,-97.0507,0.0,1.185959527,298.7260635,6.3,'11111222,11111222,11111222' 
TABS,ioos:station:wmo:42044:1,2003-09-03T13:09:00Z,26.1914,-97.0507,0.0,2.145600149,16.2385932,6.92,'11111222,11111222,11111222' 
TABS,ioos:station:wmo:42044:1,2003-09-03T13:39:00Z,26.1914,-97.0507,0.0,2.750363612,13.88442476,4.96,'11111222,11111222,11111222' 
TABS,ioos:station:wmo:42044:1,2003-09-03T14:09:00Z,26.1914,-97.0507,0.0,3.934018302,128.7056295,7.09,'11111222,11111222,11111222' 
TABS,ioos:station:wmo:42044:1,2003-09-03T14:39:00Z,26.1914,-97.0507,0.0,3.818075431,52.76961119,6.08,'11111222,11111222,11111222' 
TABS,ioos:station:wmo:42044:1,2003-09-03T15:09:00Z,26.1914,-97.0507,0.0,3.720053763,46.08882394,6.66,'11111222,11111222,11111222' 
TABS,ioos:station:wmo:42044:1,2003-09-03T15:39:00Z,26.1914,-97.0507,0.0,3.95237903,34.17225653,6.69,'11111222,11111222,11111222' 
TABS,ioos:station:wmo:42044:1,2003-09-03T16:09:00Z,26.1914,-97.0507,0.0,4.22829753,24.74647989,6.74,'11111222,11111222,11111222' 
TABS,ioos:station:wmo:42044:1,2003-09-03T16:39:00Z,26.1914,-97.0507,0.0,4.547801667,38.48242663,7.63,'11111222,11111222,11111222' 
TABS,ioos:station:wmo:42044:1,2003-09-03T17:09:00Z,26.1914,-97.0507,0.0,5.050831615,41.54844684,7.37,'11111222,11111222,11111222' 
TABS,ioos:station:wmo:42044:1,2003-09-03T17:39:00Z,26.1914,-97.0507,0.0,4.296161077,33.80074454,6.97,'11111222,11111222,11111222' 
TABS,ioos:station:wmo:42044:1,2003-09-03T18:09:00Z,26.1914,-97.0507,0.0,1.587104281,5.422995456,7.12,'11111222,11111222,11111222' 
TABS,ioos:station:wmo:42044:1,2003-09-03T18:39:00Z,26.1914,-97.0507,0.0,1.41675686,251.0535396,5.48,'11111222,11111222,11111222' 
TABS,ioos:station:wmo:42044:1,2003-09-03T19:09:00Z,26.1914,-97.0507,0.0,2.854908055,14.8148225,6.67,'11111222,11111222,11111222' 
TABS,ioos:station:wmo:42044:1,2003-09-03T19:39:00Z,26.1914,-97.0507,0.0,3.715171598,28.97942947,7.74,'11111222,11111222,11111222' 
TABS,ioos:station:wmo:42044:1,2003-09-03T20:09:00Z,26.1914,-97.0507,0.0,1.576990805,45.77043126,7.02,'11111222,11111222,11111222' 
TABS,ioos:station:wmo:42044:1,2003-09-03T20:39:00Z,26.1914,-97.0507,0.0,5.414000369,53.10860192,8.48,'11111222,11111222,11111222' 
TABS,ioos:station:wmo:42044:1,2003-09-03T21:09:00Z,26.1914,-97.0507,0.0,5.410591465,52.28257402,9.12,'11111222,11111222,11111222' 
TABS,ioos:station:wmo:42044:1,2003-09-03T21:39:00Z,26.1914,-97.0507,0.0,3.926741652,46.96039113,8.0,'11111222,11111222,11111222' 
TABS,ioos:station:wmo:42044:1,2003-09-03T22:09:00Z,26.1914,-97.0507,0.0,3.972367053,27.91949068,6.9,'11111222,11111222,11111222' 
TABS,ioos:station:wmo:42044:1,2003-09-03T22:39:00Z,26.1914,-97.0507,0.0,3.780383578,34.11013498,8.47,'11111222,11111222,11111222' 
TABS,ioos:station:wmo:42044:1,2003-09-03T23:09:00Z,26.1914,-97.0507,0.0,5.386742986,50.72523161,9.14,'11111222,11111222,11111222' 
TABS,ioos:station:wmo:42044:1,2003-09-03T23:39:00Z,26.1914,-97.0507,0.0,4.623948529,22.23833525,7.49,'11111222,11111222,11111222' 
TABS,ioos:station:wmo:42044:1,2003-09-04T00:09:00Z,26.1914,-97.0507,0.0,4.53927307,26.84702087,8.63,'11111222,11111222,11111222' 
TABS,ioos:station:wmo:42044:1,2003-09-04T00:39:00Z,26.1914,-97.0507,0.0,4.835080144,29.21546208,8.25,'11111222,11111222,11111222' 
TABS,ioos:station:wmo:42044:1,2003-09-04T01:09:00Z,26.1914,-97.0507,0.0,1.483677863,73.15241904,8.23,'11111222,11111222,11111222' 
TABS,ioos:station:wmo:42044:1,2003-09-04T01:39:00Z,26.1914,-97.0507,0.0,4.590098038,36.49512496,8.02,'11111222,11111222,11111222' 
TABS,ioos:station:wmo:42044:1,2003-09-04T02:09:00Z,26.1914,-97.0507,0.0,1.180677771,51.1882858,7.32,'11111222,11111222,11111222' 
TABS,ioos:station:wmo:42044:1,2003-09-04T02:39:00Z,26.1914,-97.0507,0.0,4.740305897,41.32206341,8.31,'11111222,11111222,11111222' 
TABS,ioos:station:wmo:42044:1,2003-09-04T03:09:00Z,26.1914,-97.0507,0.0,4.186287138,44.41900508,8.83,'11111222,11111222,11111222' 
TABS,ioos:station:wmo:42044:1,2003-09-04T03:39:00Z,26.1914,-97.0507,0.0,2.338482414,57.39692162,7.8,'11111222,11111222,11111222' 
TABS,ioos:station:wmo:42044:1,2003-09-04T04:09:00Z,26.1914,-97.0507,0.0,4.021504694,51.56236747,7.06,'11111222,11111222,11111222' 
TABS,ioos:station:wmo:42044:1,2003-09-04T04:39:00Z,26.1914,-97.0507,0.0,3.590111419,48.04805212,7.05,'11111222,11111222,11111222' 
TABS,ioos:station:wmo:42044:1,2003-09-04T05:09:00Z,26.1914,-97.0507,0.0,1.620277754,88.93866987,7.35,'11111222,11111222,11111222' 
TABS,ioos:station:wmo:42044:1,2003-09-04T05:39:00Z,26.1914,-97.0507,0.0,6.30596543,70.93255047,9.37,'11111222,11111222,11111222' 
TABS,ioos:station:wmo:42044:1,2003-09-04T06:09:00Z,26.1914,-97.0507,0.0,5.173490118,76.47372403,9.27,'11111222,11111222,11111222' 
TABS,ioos:station:wmo:42044:1,2003-09-04T06:39:00Z,26.1914,-97.0507,0.0,4.882007784,66.58529907,7.45,'11111222,11111222,11111222' 
TABS,ioos:station:wmo:42044:1,2003-09-04T07:09:00Z,26.1914,-97.0507,0.0,3.988984833,74.29097799,7.92,'11111222,11111222,11111222' 
TABS,ioos:station:wmo:42044:1,2003-09-04T07:39:00Z,26.1914,-97.0507,0.0,4.449292079,82.37942445,7.48,'11111222,11111222,11111222' 
TABS,ioos:station:wmo:42044:1,2003-09-04T08:09:00Z,26.1914,-97.0507,0.0,5.19316859,84.58541023,8.41,'11111222,11111222,11111222' 
TABS,ioos:station:wmo:42044:1,2003-09-04T08:39:00Z,26.1914,-97.0507,0.0,5.11645385,85.40334322,8.11,'11111222,11111222,11111222' 
TABS,ioos:station:wmo:42044:1,2003-09-04T09:09:00Z,26.1914,-97.0507,0.0,4.547988566,70.60850658,7.66,'11111222,11111222,11111222' 
TABS,ioos:station:wmo:42044:1,2003-09-04T09:39:00Z,26.1914,-97.0507,0.0,4.874966667,75.99187373,7.31,'11111222,11111222,11111222' 
TABS,ioos:station:wmo:42044:1,2003-09-04T10:09:00Z,26.1914,-97.0507,0.0,3.805180679,46.27744223,6.06,'11111222,11111222,11111222' 
TABS,ioos:station:wmo:42044:1,2003-09-04T10:39:00Z,26.1914,-97.0507,0.0,3.738582619,215.8584864,5.94,'11111222,11111222,11111222' 
TABS,ioos:station:wmo:42044:1,2003-09-04T11:09:00Z,26.1914,-97.0507,0.0,4.579475953,220.9271043,6.03,'11111222,11111222,11111222' 
TABS,ioos:station:wmo:42044:1,2003-09-04T11:39:00Z,26.1914,-97.0507,0.0,3.746811978,231.937339,4.86,'11111222,11111222,11111222' 
TABS,ioos:station:wmo:42044:1,2003-09-04T12:09:00Z,26.1914,-97.0507,0.0,0.582494635,258.1113698,5.46,'11111222,11111222,11111222' 
TABS,ioos:station:wmo:42044:1,2003-09-04T12:39:00Z,26.1914,-97.0507,0.0,1.096357606,284.7967276,5.95,'11111222,11111222,11111222' 
TABS,ioos:station:wmo:42044:1,2003-09-04T13:09:00Z,26.1914,-97.0507,0.0,4.203641279,222.6863881,5.69,'11111222,11111222,11111222' 
TABS,ioos:station:wmo:42044:1,2003-09-04T13:39:00Z,26.1914,-97.0507,0.0,3.811469533,224.468621,5.11,'11111222,11111222,11111222' 
TABS,ioos:station:wmo:42044:1,2003-09-04T14:09:00Z,26.1914,-97.0507,0.0,3.305525677,222.425376,4.79,'11111222,11111222,11111222' 
TABS,ioos:station:wmo:42044:1,2003-09-04T14:39:00Z,26.1914,-97.0507,0.0,3.430218652,211.6514093,5.05,'11111222,11111222,11111222' 
TABS,ioos:station:wmo:42044:1,2003-09-04T15:09:00Z,26.1914,-97.0507,0.0,3.35201432,230.3258334,4.64,'11111222,11111222,11111222' 
TABS,ioos:station:wmo:42044:1,2003-09-04T15:39:00Z,26.1914,-97.0507,0.0,3.814826339,206.9682103,4.94,'11111222,11111222,11111222' 
TABS,ioos:station:wmo:42044:1,2003-09-04T16:09:00Z,26.1914,-97.0507,0.0,3.518763988,222.1204576,4.58,'11111222,11111222,11111222' 
TABS,ioos:station:wmo:42044:1,2003-09-04T16:39:00Z,26.1914,-97.0507,0.0,3.159952531,219.7360423,4.6,'11111222,11111222,11111222' 
TABS,ioos:station:wmo:42044:1,2003-09-04T17:09:00Z,26.1914,-97.0507,0.0,2.974054472,206.1344133,4.26,'11111222,11111222,11111222' 
TABS,ioos:station:wmo:42044:1,2003-09-04T17:39:00Z,26.1914,-97.0507,0.0,2.166217902,235.7231366,4.23,'11111222,11111222,11111222' 
TABS,ioos:station:wmo:42044:1,2003-09-04T18:09:00Z,26.1914,-97.0507,0.0,2.090287062,228.6852433,3.46,'11111222,11111222,11111222' 
TABS,ioos:station:wmo:42044:1,2003-09-04T18:39:00Z,26.1914,-97.0507,0.0,1.903785702,238.3137064,3.84,'11111222,11111222,11111222' 